| time (UTC) | temp F | wind direction | speed MPH | gust MPH | rain 1hr in | rain 24hr in | rain mn in | humidity % | barometer mb |
| 20260510225102 | 89 | 179 | 0.0 | 0.0 | 0.00 | 0.00 | 0.00 | 37 | 1018.3 |
| 20260510224558 | 88 | 174 | 0.0 | 1.0 | 0.00 | 0.00 | 0.00 | 43 | 1018.4 |
| 20260510224055 | 87 | 188 | 1.0 | 1.0 | 0.00 | 0.00 | 0.00 | 38 | 1018.3 |
| 20260510223553 | 88 | 209 | 1.0 | 2.0 | 0.00 | 0.00 | 0.00 | 34 | 1018.2 |
| 20260510223050 | 86 | 123 | 0.0 | 2.0 | 0.00 | 0.00 | 0.00 | 33 | 1018.5 |
| 20260510222547 | 87 | 185 | 0.0 | 0.0 | 0.00 | 0.00 | 0.00 | 35 | 1018.2 |
| 20260510222043 | 85 | 186 | 1.0 | 3.0 | 0.00 | 0.00 | 0.00 | 36 | 1018.6 |
| 20260510221539 | 85 | 177 | 0.0 | 2.0 | 0.00 | 0.00 | 0.00 | 39 | 1018.4 |
| 20260510221035 | 87 | 129 | 0.0 | 2.0 | 0.00 | 0.00 | 0.00 | 33 | 1018.2 |
| 20260510220532 | 88 | 200 | 0.0 | 1.0 | 0.00 | 0.00 | 0.00 | 34 | 1018.2 |
| 20260510220028 | 88 | 213 | 2.0 | 3.0 | 0.00 | 0.00 | 0.00 | 34 | 1018.4 |
| 20260510215526 | 87 | 159 | 0.0 | 3.0 | 0.00 | 0.00 | 0.00 | 34 | 1018.4 |
| 20260510215023 | 85 | 189 | 1.0 | 5.0 | 0.00 | 0.00 | 0.00 | 35 | 1018.4 |
| 20260510214520 | 85 | 276 | 3.0 | 5.0 | 0.00 | 0.00 | 0.00 | 35 | 1018.1 |
| 20260510214016 | 85 | 176 | 2.0 | 5.0 | 0.00 | 0.00 | 0.00 | 36 | 1018.4 |
| 20260510213514 | 88 | 238 | 2.0 | 3.0 | 0.00 | 0.00 | 0.00 | 33 | 1018.1 |
| 20260510213010 | 87 | 235 | 0.0 | 1.0 | 0.00 | 0.00 | 0.00 | 32 | 1018.1 |
| 20260510212506 | 85 | 181 | 1.0 | 3.0 | 0.00 | 0.00 | 0.00 | 35 | 1018.3 |
| 20260510212003 | 86 | 219 | 2.0 | 3.0 | 0.00 | 0.00 | 0.00 | 35 | 1018.3 |
| 20260510211500 | 86 | 166 | 3.0 | 7.0 | 0.00 | 0.00 | 0.00 | 35 | 1018.3 |
| 20260510211000 | 84 | 200 | 0.0 | 2.0 | 0.00 | 0.00 | 0.00 | 34 | 1018.1 |
| 20260510210456 | 84 | 111 | 1.0 | 1.0 | 0.00 | 0.00 | 0.00 | 33 | 1018.3 |
| 20260510205950 | 84 | 324 | 2.0 | 3.0 | 0.00 | 0.00 | 0.00 | 33 | 1018.3 |
| 20260510205445 | 84 | 208 | 5.0 | 6.0 | 0.00 | 0.00 | 0.00 | 34 | 1018.5 |
| 20260510204941 | 84 | 277 | 3.0 | 6.0 | 0.00 | 0.00 | 0.00 | 34 | 1018.4 |
| 20260510204438 | 84 | 20 | 3.0 | 6.0 | 0.00 | 0.00 | 0.00 | 33 | 1018.4 |
| 20260510203933 | 85 | 169 | 1.0 | 5.0 | 0.00 | 0.00 | 0.00 | 36 | 1018.3 |
| 20260510203432 | 87 | 196 | 1.0 | 1.0 | 0.00 | 0.00 | 0.00 | 37 | 1018.3 |
| 20260510202926 | 86 | 213 | 3.0 | 3.0 | 0.00 | 0.00 | 0.00 | 32 | 1018.4 |
| 20260510202422 | 84 | 169 | 0.0 | 1.0 | 0.00 | 0.00 | 0.00 | 38 | 1018.6 |
| 20260510201919 | 85 | 314 | 2.0 | 3.0 | 0.00 | 0.00 | 0.00 | 33 | 1018.7 |
| 20260510201416 | 84 | 189 | 2.0 | 5.0 | 0.00 | 0.00 | 0.00 | 35 | 1018.6 |
| 20260510200913 | 84 | 186 | 3.0 | 6.0 | 0.00 | 0.00 | 0.00 | 38 | 1018.6 |
| 20260510200412 | 84 | 151 | 1.0 | 6.0 | 0.00 | 0.00 | 0.00 | 35 | 1018.7 |
| 20260510195907 | 86 | 200 | 4.0 | 6.0 | 0.00 | 0.00 | 0.00 | 36 | 1018.9 |
| 20260510195404 | 86 | 175 | 1.0 | 3.0 | 0.00 | 0.00 | 0.00 | 37 | 1018.7 |
| 20260510194858 | 85 | 233 | 1.0 | 3.0 | 0.00 | 0.00 | 0.00 | 39 | 1018.6 |
| 20260510194355 | 84 | 232 | 2.0 | 5.0 | 0.00 | 0.00 | 0.00 | 36 | 1018.8 |
| 20260510193851 | 84 | 164 | 2.0 | 5.0 | 0.00 | 0.00 | 0.00 | 37 | 1018.8 |
| 20260510193346 | 85 | 134 | 1.0 | 2.0 | 0.00 | 0.00 | 0.00 | 35 | 1019.0 |
| 20260510192842 | 84 | 209 | 2.0 | 3.0 | 0.00 | 0.00 | 0.00 | 36 | 1018.9 |
| 20260510192337 | 85 | 182 | 3.0 | 3.0 | 0.00 | 0.00 | 0.00 | 36 | 1018.9 |
| 20260510191833 | 85 | 299 | 2.0 | 3.0 | 0.00 | 0.00 | 0.00 | 38 | 1018.9 |
| 20260510191329 | 85 | 43 | 2.0 | 5.0 | 0.00 | 0.00 | 0.00 | 34 | 1018.9 |
| 20260510190827 | 84 | 181 | 3.0 | 3.0 | 0.00 | 0.00 | 0.00 | 35 | 1018.8 |
| 20260510190325 | 83 | 98 | 2.0 | 2.0 | 0.00 | 0.00 | 0.00 | 36 | 1018.9 |
| 20260510185815 | 82 | 203 | 1.0 | 7.0 | 0.00 | 0.00 | 0.00 | 36 | 1018.9 |
| 20260510185313 | 84 | 201 | 1.0 | 2.0 | 0.00 | 0.00 | 0.00 | 38 | 1019.2 |
| 20260510184810 | 84 | 212 | 2.0 | 3.0 | 0.00 | 0.00 | 0.00 | 35 | 1019.0 |
| 20260510184306 | 83 | 192 | 1.0 | 3.0 | 0.00 | 0.00 | 0.00 | 40 | 1019.1 |
| 20260510183801 | 83 | 196 | 2.0 | 3.0 | 0.00 | 0.00 | 0.00 | 36 | 1019.2 |
| 20260510183256 | 81 | 169 | 2.0 | 5.0 | 0.00 | 0.00 | 0.00 | 38 | 1019.1 |
| 20260510182753 | 82 | 309 | 5.0 | 7.0 | 0.00 | 0.00 | 0.00 | 34 | 1019.5 |
| 20260510182249 | 82 | 71 | 1.0 | 6.0 | 0.00 | 0.00 | 0.00 | 38 | 1019.4 |
| 20260510181746 | 83 | 312 | 1.0 | 5.0 | 0.00 | 0.00 | 0.00 | 37 | 1019.3 |
| 20260510181243 | 81 | 123 | 0.0 | 3.0 | 0.00 | 0.00 | 0.00 | 38 | 1019.2 |
| 20260510180739 | 80 | 325 | 3.0 | 7.0 | 0.00 | 0.00 | 0.00 | 37 | 1019.1 |
| 20260510180236 | 83 | 161 | 0.0 | 3.0 | 0.00 | 0.00 | 0.00 | 45 | 1019.4 |
| 20260510175733 | 82 | 217 | 4.0 | 6.0 | 0.00 | 0.00 | 0.00 | 37 | 1019.3 |
| 20260510175228 | 82 | 318 | 3.0 | 6.0 | 0.00 | 0.00 | 0.00 | 35 | 1019.5 |
| 20260510174726 | 83 | 172 | 1.0 | 3.0 | 0.00 | 0.00 | 0.00 | 36 | 1019.6 |
| 20260510174223 | 82 | 164 | 1.0 | 3.0 | 0.00 | 0.00 | 0.00 | 36 | 1019.4 |
| 20260510173719 | 82 | 192 | 3.0 | 6.0 | 0.00 | 0.00 | 0.00 | 37 | 1019.6 |
| 20260510173215 | 82 | 65 | 2.0 | 6.0 | 0.00 | 0.00 | 0.00 | 36 | 1019.7 |
| 20260510172710 | 82 | 82 | 2.0 | 2.0 | 0.00 | 0.00 | 0.00 | 33 | 1019.7 |
| 20260510172207 | 81 | 329 | 4.0 | 6.0 | 0.00 | 0.00 | 0.00 | 35 | 1019.7 |
| 20260510171703 | 81 | 81 | 4.0 | 5.0 | 0.00 | 0.00 | 0.00 | 35 | 1020.1 |
| 20260510171201 | 82 | 39 | 2.0 | 3.0 | 0.00 | 0.00 | 0.00 | 35 | 1020.1 |
| 20260510170658 | 81 | 325 | 3.0 | 3.0 | 0.00 | 0.00 | 0.00 | 36 | 1019.9 |
| 20260510170154 | 80 | 93 | 3.0 | 5.0 | 0.00 | 0.00 | 0.00 | 32 | 1020.2 |
| 20260510165650 | 81 | 41 | 3.0 | 6.0 | 0.00 | 0.00 | 0.00 | 31 | 1020.1 |
| 20260510165146 | 81 | 108 | 3.0 | 5.0 | 0.00 | 0.00 | 0.00 | 35 | 1020.1 |
| 20260510164644 | 81 | 190 | 2.0 | 3.0 | 0.00 | 0.00 | 0.00 | 37 | 1020.1 |
| 20260510164141 | 81 | 1 | 2.0 | 3.0 | 0.00 | 0.00 | 0.00 | 38 | 1020.0 |
| 20260510163636 | 81 | 43 | 2.0 | 5.0 | 0.00 | 0.00 | 0.00 | 35 | 1020.1 |
| 20260510163132 | 81 | 196 | 2.0 | 6.0 | 0.00 | 0.00 | 0.00 | 35 | 1020.4 |
| 20260510162632 | 80 | 128 | 2.0 | 3.0 | 0.00 | 0.00 | 0.00 | 38 | 1020.1 |
| 20260510162129 | 80 | 78 | 1.0 | 7.0 | 0.00 | 0.00 | 0.00 | 34 | 1020.1 |
| 20260510161625 | 80 | 67 | 4.0 | 5.0 | 0.00 | 0.00 | 0.00 | 36 | 1020.2 |
| 20260510161122 | 80 | 141 | 2.0 | 5.0 | 0.00 | 0.00 | 0.00 | 38 | 1020.1 |
| 20260510160619 | 81 | 323 | 7.0 | 11.0 | 0.00 | 0.00 | 0.00 | 38 | 1020.2 |
| 20260510160118 | 80 | 97 | 3.0 | 5.0 | 0.00 | 0.00 | 0.00 | 37 | 1020.1 |
| 20260510155615 | 80 | 52 | 1.0 | 3.0 | 0.00 | 0.00 | 0.00 | 42 | 1020.1 |
| 20260510155111 | 80 | 353 | 4.0 | 6.0 | 0.00 | 0.00 | 0.00 | 46 | 1020.1 |
| 20260510154607 | 79 | 87 | 4.0 | 6.0 | 0.00 | 0.00 | 0.00 | 47 | 1020.4 |
| 20260510154102 | 80 | 202 | 0.0 | 5.0 | 0.00 | 0.00 | 0.00 | 51 | 1020.4 |
| 20260510153557 | 79 | 62 | 3.0 | 3.0 | 0.00 | 0.00 | 0.00 | 50 | 1020.3 |
| 20260510153054 | 77 | 101 | 3.0 | 5.0 | 0.00 | 0.00 | 0.00 | 49 | 1020.4 |
| 20260510152551 | 78 | 92 | 4.0 | 6.0 | 0.00 | 0.00 | 0.00 | 49 | 1020.6 |
| 20260510152047 | 78 | 238 | 2.0 | 3.0 | 0.00 | 0.00 | 0.00 | 53 | 1020.3 |
| 20260510151544 | 78 | 288 | 2.0 | 5.0 | 0.00 | 0.00 | 0.00 | 53 | 1020.3 |
| 20260510151042 | 77 | 349 | 3.0 | 3.0 | 0.00 | 0.00 | 0.00 | 52 | 1020.4 |
| 20260510150537 | 78 | 98 | 3.0 | 3.0 | 0.00 | 0.00 | 0.00 | 54 | 1020.3 |
| 20260510150033 | 78 | 130 | 2.0 | 3.0 | 0.00 | 0.00 | 0.00 | 52 | 1020.2 |
| 20260510145530 | 77 | 76 | 3.0 | 5.0 | 0.00 | 0.00 | 0.00 | 57 | 1020.5 |
| 20260510145026 | 77 | 107 | 3.0 | 6.0 | 0.00 | 0.00 | 0.00 | 58 | 1020.5 |
| 20260510144523 | 76 | 87 | 2.0 | 6.0 | 0.00 | 0.00 | 0.00 | 59 | 1020.2 |
| 20260510144019 | 76 | 307 | 3.0 | 6.0 | 0.00 | 0.00 | 0.00 | 59 | 1020.4 |
| 20260510143514 | 76 | 31 | 3.0 | 6.0 | 0.00 | 0.00 | 0.00 | 59 | 1020.1 |
| 20260510143011 | 75 | 266 | 2.0 | 3.0 | 0.00 | 0.00 | 0.00 | 62 | 1020.3 |
| 20260510142508 | 76 | 137 | 1.0 | 2.0 | 0.00 | 0.00 | 0.00 | 62 | 1020.3 |
| 20260510142004 | 75 | 53 | 2.0 | 7.0 | 0.00 | 0.00 | 0.00 | 60 | 1020.5 |
| 20260510141501 | 75 | 356 | 3.0 | 7.0 | 0.00 | 0.00 | 0.00 | 64 | 1020.3 |
| 20260510140959 | 75 | 98 | 2.0 | 5.0 | 0.00 | 0.00 | 0.00 | 65 | 1020.5 |
| 20260510140454 | 75 | 207 | 0.0 | 2.0 | 0.00 | 0.00 | 0.00 | 68 | 1020.4 |
| 20260510135954 | 74 | 60 | 3.0 | 5.0 | 0.00 | 0.00 | 0.00 | 71 | 1020.3 |
| 20260510135449 | 73 | 98 | 2.0 | 5.0 | 0.00 | 0.00 | 0.00 | 73 | 1020.2 |
| 20260510134947 | 74 | 72 | 1.0 | 3.0 | 0.00 | 0.00 | 0.00 | 73 | 1020.2 |
| 20260510134443 | 73 | 72 | 3.0 | 3.0 | 0.00 | 0.00 | 0.00 | 75 | 1020.3 |
| 20260510133940 | 73 | 82 | 3.0 | 3.0 | 0.00 | 0.00 | 0.00 | 77 | 1020.1 |
| 20260510133436 | 72 | 103 | 0.0 | 2.0 | 0.00 | 0.00 | 0.00 | 80 | 1020.3 |
| 20260510132932 | 71 | 88 | 2.0 | 3.0 | 0.00 | 0.00 | 0.00 | 80 | 1020.3 |
| 20260510132430 | 70 | 46 | 3.0 | 3.0 | 0.00 | 0.00 | 0.00 | 83 | 1020.3 |
| 20260510131927 | 70 | 88 | 1.0 | 3.0 | 0.00 | 0.00 | 0.00 | 84 | 1020.2 |
| 20260510131424 | 71 | 100 | 1.0 | 2.0 | 0.00 | 0.00 | 0.00 | 83 | 1020.4 |
| 20260510130920 | 71 | 167 | 0.0 | 1.0 | 0.00 | 0.00 | 0.00 | 84 | 1020.1 |
| 20260510130418 | 71 | 145 | 0.0 | 1.0 | 0.00 | 0.00 | 0.00 | 84 | 1020.1 |
| 20260510125915 | 71 | 158 | 0.0 | 2.0 | 0.00 | 0.00 | 0.00 | 83 | 1020.2 |
| 20260510125410 | 70 | 154 | 0.0 | 2.0 | 0.00 | 0.00 | 0.00 | 85 | 1020.1 |
| 20260510124908 | 70 | 137 | 0.0 | 1.0 | 0.00 | 0.00 | 0.00 | 85 | 1020.2 |
| 20260510124404 | 69 | 147 | 0.0 | 0.0 | 0.00 | 0.00 | 0.00 | 87 | 1019.9 |
| 20260510123900 | 68 | 162 | 0.0 | 0.0 | 0.00 | 0.00 | 0.00 | 90 | 1020.1 |
| 20260510123356 | 65 | 155 | 0.0 | 0.0 | 0.00 | 0.00 | 0.00 | 94 | 1020.1 |
| 20260510122853 | 64 | 150 | 0.0 | 0.0 | 0.00 | 0.00 | 0.00 | 99 | 1019.9 |
| 20260510122348 | 62 | 164 | 0.0 | 0.0 | 0.00 | 0.00 | 0.00 | 99 | 1019.9 |
| 20260510121845 | 62 | 157 | 0.0 | 0.0 | 0.00 | 0.00 | 0.00 | 99 | 1019.9 |
| 20260510121343 | 61 | 159 | 0.0 | 0.0 | 0.00 | 0.00 | 0.00 | 99 | 1019.7 |
| 20260510120839 | 61 | 153 | 0.0 | 0.0 | 0.00 | 0.00 | 0.00 | 99 | 1019.7 |
| 20260510120337 | 60 | 159 | 0.0 | 0.0 | 0.00 | 0.00 | 0.00 | 99 | 1019.4 |
| 20260510115832 | 60 | 155 | 0.0 | 0.0 | 0.00 | 0.00 | 0.00 | 99 | 1019.3 |
| 20260510115329 | 58 | 162 | 0.0 | 0.0 | 0.00 | 0.00 | 0.00 | 99 | 1019.3 |
| 20260510114825 | 56 | 153 | 0.0 | 0.0 | 0.00 | 0.00 | 0.00 | 99 | 1019.2 |
| 20260510114323 | 55 | 145 | 0.0 | 0.0 | 0.00 | 0.00 | 0.00 | 99 | 1019.2 |
| 20260510113817 | 56 | 162 | 0.0 | 0.0 | 0.00 | 0.00 | 0.00 | 99 | 1019.3 |
| 20260510113314 | 55 | 156 | 0.0 | 0.0 | 0.00 | 0.00 | 0.00 | 99 | 1019.3 |
| 20260510112811 | 55 | 157 | 0.0 | 0.0 | 0.00 | 0.00 | 0.00 | 99 | 1019.0 |
| 20260510112308 | 55 | 166 | 0.0 | 0.0 | 0.00 | 0.00 | 0.00 | 99 | 1018.9 |
| 20260510111804 | 55 | 160 | 0.0 | 0.0 | 0.00 | 0.00 | 0.00 | 99 | 1019.0 |
| 20260510111301 | 54 | 162 | 0.0 | 0.0 | 0.00 | 0.00 | 0.00 | 99 | 1019.1 |
| 20260510110800 | 55 | 155 | 0.0 | 0.0 | 0.00 | 0.00 | 0.00 | 99 | 1018.8 |
| 20260510110258 | 54 | 166 | 0.0 | 0.0 | 0.00 | 0.00 | 0.00 | 99 | 1018.7 |
| 20260510105759 | 54 | 165 | 0.0 | 0.0 | 0.00 | 0.00 | 0.00 | 99 | 1018.8 |
| 20260510105253 | 54 | 160 | 0.0 | 0.0 | 0.00 | 0.00 | 0.00 | 99 | 1018.6 |
| 20260510104750 | 54 | 169 | 0.0 | 0.0 | 0.00 | 0.00 | 0.00 | 99 | 1018.6 |
| 20260510104248 | 54 | 167 | 0.0 | 0.0 | 0.00 | 0.00 | 0.00 | 99 | 1018.4 |
| 20260510103744 | 54 | 167 | 0.0 | 0.0 | 0.00 | 0.00 | 0.00 | 99 | 1018.4 |
| 20260510103241 | 54 | 166 | 0.0 | 0.0 | 0.00 | 0.00 | 0.00 | 99 | 1018.4 |
| 20260510102741 | 54 | 165 | 0.0 | 0.0 | 0.00 | 0.00 | 0.00 | 99 | 1017.9 |
| 20260510102236 | 55 | 165 | 0.0 | 0.0 | 0.00 | 0.00 | 0.00 | 99 | 1018.4 |
| 20260510101734 | 55 | 165 | 0.0 | 0.0 | 0.00 | 0.00 | 0.00 | 99 | 1018.2 |
| 20260510101233 | 54 | 165 | 0.0 | 0.0 | 0.00 | 0.00 | 0.00 | 99 | 1018.2 |
| 20260510100728 | 54 | 165 | 0.0 | 0.0 | 0.00 | 0.00 | 0.00 | 99 | 1018.0 |
| 20260510100226 | 55 | 166 | 0.0 | 0.0 | 0.00 | 0.00 | 0.00 | 99 | 1017.9 |
| 20260510095721 | 55 | 165 | 0.0 | 0.0 | 0.00 | 0.00 | 0.00 | 99 | 1017.8 |
| 20260510095217 | 55 | 168 | 0.0 | 0.0 | 0.00 | 0.00 | 0.00 | 99 | 1017.9 |
| 20260510094715 | 55 | 169 | 0.0 | 0.0 | 0.00 | 0.00 | 0.00 | 99 | 1017.8 |
| 20260510094211 | 55 | 169 | 0.0 | 0.0 | 0.00 | 0.00 | 0.00 | 99 | 1017.9 |
| 20260510093707 | 55 | 169 | 0.0 | 0.0 | 0.00 | 0.00 | 0.00 | 99 | 1017.6 |
| 20260510093205 | 55 | 161 | 0.0 | 0.0 | 0.00 | 0.00 | 0.00 | 99 | 1017.6 |
| 20260510092701 | 55 | 159 | 0.0 | 0.0 | 0.00 | 0.00 | 0.00 | 99 | 1017.6 |
| 20260510092157 | 55 | 165 | 0.0 | 0.0 | 0.00 | 0.00 | 0.00 | 99 | 1017.5 |
| 20260510091652 | 54 | 165 | 0.0 | 0.0 | 0.00 | 0.00 | 0.00 | 99 | 1017.3 |
| 20260510091149 | 55 | 170 | 0.0 | 0.0 | 0.00 | 0.00 | 0.00 | 99 | 1017.3 |
| 20260510090646 | 55 | 169 | 0.0 | 0.0 | 0.00 | 0.00 | 0.00 | 99 | 1017.2 |
| 20260510090143 | 55 | 165 | 0.0 | 0.0 | 0.00 | 0.00 | 0.00 | 99 | 1017.0 |
| 20260510085638 | 55 | 157 | 0.0 | 0.0 | 0.00 | 0.00 | 0.00 | 99 | 1017.2 |
| 20260510085133 | 55 | 153 | 0.0 | 0.0 | 0.00 | 0.00 | 0.00 | 99 | 1017.2 |
| 20260510084630 | 55 | 161 | 0.0 | 0.0 | 0.00 | 0.00 | 0.00 | 99 | 1016.9 |
| 20260510084126 | 55 | 159 | 0.0 | 0.0 | 0.00 | 0.00 | 0.00 | 99 | 1016.9 |
| 20260510083623 | 55 | 144 | 0.0 | 0.0 | 0.00 | 0.00 | 0.00 | 99 | 1016.7 |
| 20260510083120 | 55 | 169 | 0.0 | 0.0 | 0.00 | 0.00 | 0.00 | 99 | 1016.8 |
| 20260510082616 | 55 | 169 | 0.0 | 0.0 | 0.00 | 0.00 | 0.00 | 99 | 1016.8 |
| 20260510082112 | 55 | 169 | 0.0 | 0.0 | 0.00 | 0.00 | 0.00 | 99 | 1016.8 |
| 20260510081612 | 55 | 153 | 0.0 | 0.0 | 0.00 | 0.00 | 0.00 | 99 | 1016.7 |
| 20260510081108 | 55 | 161 | 0.0 | 0.0 | 0.00 | 0.00 | 0.00 | 99 | 1016.7 |
| 20260510080608 | 55 | 161 | 0.0 | 0.0 | 0.00 | 0.00 | 0.00 | 99 | 1016.5 |
| 20260510080105 | 56 | 165 | 0.0 | 0.0 | 0.00 | 0.00 | 0.00 | 99 | 1016.6 |
| 20260510075602 | 56 | 166 | 0.0 | 0.0 | 0.00 | 0.00 | 0.00 | 99 | 1016.7 |
| 20260510075058 | 56 | 155 | 0.0 | 0.0 | 0.00 | 0.00 | 0.00 | 99 | 1016.5 |
| 20260510074556 | 56 | 155 | 0.0 | 0.0 | 0.00 | 0.00 | 0.00 | 99 | 1016.5 |
| 20260510074051 | 56 | 154 | 0.0 | 0.0 | 0.00 | 0.00 | 0.00 | 99 | 1016.6 |
| 20260510073548 | 56 | 166 | 0.0 | 0.0 | 0.00 | 0.00 | 0.00 | 99 | 1016.6 |
| 20260510073045 | 56 | 167 | 0.0 | 0.0 | 0.00 | 0.00 | 0.00 | 99 | 1016.5 |
| 20260510072541 | 56 | 161 | 0.0 | 0.0 | 0.00 | 0.00 | 0.00 | 99 | 1016.5 |
| 20260510072037 | 56 | 160 | 0.0 | 0.0 | 0.00 | 0.00 | 0.00 | 99 | 1016.4 |
| 20260510071533 | 57 | 158 | 0.0 | 0.0 | 0.00 | 0.00 | 0.00 | 99 | 1016.3 |
| 20260510071032 | 57 | 169 | 0.0 | 0.0 | 0.00 | 0.00 | 0.00 | 99 | 1016.6 |
| 20260510070528 | 57 | 169 | 0.0 | 0.0 | 0.00 | 0.00 | 0.00 | 99 | 1016.4 |
| 20260510070025 | 57 | 157 | 0.0 | 0.0 | 0.00 | 0.00 | 0.00 | 99 | 1016.3 |
| 20260510065521 | 57 | 157 | 0.0 | 0.0 | 0.00 | 0.00 | 0.00 | 99 | 1016.3 |
| 20260510065017 | 57 | 159 | 0.0 | 0.0 | 0.00 | 0.00 | 0.00 | 99 | 1016.4 |
| 20260510064514 | 57 | 151 | 0.0 | 0.0 | 0.00 | 0.00 | 0.00 | 99 | 1016.2 |
| 20260510064011 | 57 | 155 | 0.0 | 0.0 | 0.00 | 0.00 | 0.00 | 99 | 1016.6 |
| 20260510063508 | 57 | 155 | 0.0 | 0.0 | 0.00 | 0.00 | 0.00 | 99 | 1016.5 |
| 20260510063005 | 57 | 165 | 0.0 | 0.0 | 0.00 | 0.00 | 0.00 | 99 | 1016.3 |
| 20260510062501 | 57 | 166 | 0.0 | 0.0 | 0.00 | 0.00 | 0.00 | 99 | 1016.4 |
| 20260510061956 | 57 | 165 | 0.0 | 0.0 | 0.00 | 0.00 | 0.00 | 99 | 1016.4 |
| 20260510061453 | 57 | 166 | 0.0 | 0.0 | 0.00 | 0.00 | 0.00 | 99 | 1016.7 |
| 20260510060949 | 57 | 165 | 0.0 | 0.0 | 0.00 | 0.00 | 0.00 | 99 | 1016.2 |
| 20260510060446 | 57 | 166 | 0.0 | 0.0 | 0.00 | 0.00 | 0.00 | 99 | 1016.4 |
| 20260510055942 | 57 | 166 | 0.0 | 0.0 | 0.00 | 0.00 | 0.00 | 99 | 1016.1 |
| 20260510055438 | 58 | 169 | 0.0 | 0.0 | 0.00 | 0.00 | 0.00 | 99 | 1016.4 |
| 20260510054936 | 58 | 169 | 0.0 | 0.0 | 0.00 | 0.00 | 0.00 | 99 | 1016.2 |
| 20260510054431 | 58 | 169 | 0.0 | 0.0 | 0.00 | 0.00 | 0.00 | 99 | 1016.4 |
| 20260510053926 | 58 | 170 | 0.0 | 0.0 | 0.00 | 0.00 | 0.00 | 99 | 1016.3 |
| 20260510053422 | 58 | 169 | 0.0 | 0.0 | 0.00 | 0.00 | 0.00 | 99 | 1016.3 |
| 20260510052919 | 58 | 170 | 0.0 | 0.0 | 0.00 | 0.00 | 0.00 | 99 | 1016.3 |
| 20260510052415 | 58 | 166 | 0.0 | 0.0 | 0.00 | 0.00 | 0.00 | 99 | 1016.6 |
| 20260510051911 | 58 | 165 | 0.0 | 0.0 | 0.00 | 0.00 | 0.00 | 99 | 1016.3 |
| 20260510051408 | 58 | 165 | 0.0 | 0.0 | 0.00 | 0.00 | 0.00 | 99 | 1016.4 |
| 20260510050904 | 58 | 166 | 0.0 | 0.0 | 0.00 | 0.00 | 0.00 | 99 | 1016.4 |
| 20260510050401 | 59 | 164 | 0.0 | 0.0 | 0.00 | 0.00 | 0.00 | 99 | 1016.2 |
| 20260510045858 | 59 | 173 | 0.0 | 0.0 | 0.00 | 0.00 | 0.00 | 99 | 1016.4 |
| 20260510045355 | 59 | 145 | 0.0 | 0.0 | 0.00 | 0.00 | 0.00 | 99 | 1016.3 |
| 20260510044852 | 59 | 153 | 0.0 | 0.0 | 0.00 | 0.00 | 0.00 | 99 | 1016.4 |
| 20260510044349 | 59 | 163 | 0.0 | 0.0 | 0.00 | 0.00 | 0.00 | 99 | 1016.7 |
| 20260510043845 | 59 | 163 | 0.0 | 0.0 | 0.00 | 0.00 | 0.00 | 99 | 1016.6 |
| 20260510043341 | 59 | 160 | 0.0 | 0.0 | 0.00 | 0.00 | 0.00 | 99 | 1016.4 |
| 20260510042839 | 59 | 159 | 0.0 | 0.0 | 0.00 | 0.00 | 0.00 | 99 | 1016.2 |
| 20260510042335 | 59 | 154 | 0.0 | 0.0 | 0.00 | 0.00 | 0.00 | 99 | 1016.6 |
| 20260510041831 | 59 | 163 | 0.0 | 0.0 | 0.00 | 0.00 | 0.00 | 99 | 1016.6 |
| 20260510041329 | 59 | 166 | 0.0 | 0.0 | 0.00 | 0.00 | 0.00 | 99 | 1016.6 |
| 20260510040826 | 60 | 167 | 0.0 | 0.0 | 0.00 | 0.00 | 0.00 | 99 | 1016.5 |
| 20260510040322 | 60 | 155 | 0.0 | 0.0 | 0.00 | 0.00 | 0.00 | 99 | 1016.5 |
| 20260510035818 | 60 | 170 | 0.0 | 0.0 | 0.00 | 0.02 | 0.02 | 99 | 1016.5 |
| 20260510035314 | 60 | 171 | 0.0 | 0.0 | 0.00 | 0.02 | 0.02 | 99 | 1016.7 |
| 20260510034810 | 60 | 170 | 0.0 | 0.0 | 0.00 | 0.02 | 0.02 | 99 | 1016.6 |
| 20260510034308 | 60 | 170 | 0.0 | 0.0 | 0.00 | 0.02 | 0.02 | 99 | 1016.6 |
| 20260510033804 | 60 | 169 | 0.0 | 0.0 | 0.00 | 0.02 | 0.02 | 99 | 1016.5 |
| 20260510033301 | 60 | 169 | 0.0 | 0.0 | 0.00 | 0.02 | 0.02 | 99 | 1016.7 |
| 20260510032757 | 60 | 174 | 0.0 | 0.0 | 0.00 | 0.02 | 0.02 | 99 | 1016.9 |
| 20260510032254 | 60 | 178 | 0.0 | 0.0 | 0.00 | 0.02 | 0.02 | 99 | 1016.7 |
| 20260510031749 | 60 | 170 | 0.0 | 0.0 | 0.00 | 0.02 | 0.02 | 99 | 1016.8 |
| 20260510031245 | 60 | 170 | 0.0 | 0.0 | 0.00 | 0.02 | 0.02 | 99 | 1016.7 |
| 20260510030739 | 60 | 170 | 0.0 | 0.0 | 0.00 | 0.02 | 0.02 | 99 | 1016.6 |
| 20260510030237 | 60 | 173 | 0.0 | 0.0 | 0.00 | 0.02 | 0.02 | 99 | 1016.7 |
| 20260510025734 | 61 | 150 | 0.0 | 0.0 | 0.00 | 0.02 | 0.02 | 99 | 1016.6 |
| 20260510025232 | 61 | 153 | 0.0 | 0.0 | 0.00 | 0.02 | 0.02 | 99 | 1016.4 |
| 20260510024728 | 61 | 155 | 0.0 | 0.0 | 0.00 | 0.02 | 0.02 | 99 | 1016.6 |
| 20260510024224 | 61 | 157 | 0.0 | 0.0 | 0.00 | 0.02 | 0.02 | 99 | 1016.6 |
| 20260510023720 | 61 | 166 | 0.0 | 0.0 | 0.00 | 0.02 | 0.02 | 99 | 1016.5 |
| 20260510023212 | 61 | 165 | 0.0 | 0.0 | 0.00 | 0.02 | 0.02 | 99 | 1016.5 |
| 20260510022708 | 61 | 166 | 0.0 | 0.0 | 0.00 | 0.02 | 0.02 | 99 | 1016.7 |
| 20260510022203 | 61 | 169 | 0.0 | 0.0 | 0.00 | 0.02 | 0.02 | 99 | 1016.4 |
| 20260510021658 | 61 | 149 | 0.0 | 0.0 | 0.00 | 0.02 | 0.02 | 99 | 1016.2 |
| 20260510021156 | 61 | 153 | 0.0 | 0.0 | 0.00 | 0.02 | 0.02 | 99 | 1016.5 |
| 20260510020656 | 61 | 160 | 0.0 | 0.0 | 0.00 | 0.02 | 0.02 | 99 | 1016.4 |
| 20260510020151 | 62 | 153 | 0.0 | 0.0 | 0.00 | 0.02 | 0.02 | 99 | 1016.2 |
| 20260510015647 | 62 | 139 | 0.0 | 0.0 | 0.00 | 0.02 | 0.02 | 99 | 1016.3 |
| 20260510015144 | 62 | 153 | 0.0 | 0.0 | 0.00 | 0.02 | 0.02 | 99 | 1016.2 |
| 20260510014644 | 62 | 155 | 0.0 | 0.0 | 0.00 | 0.02 | 0.02 | 99 | 1016.0 |
| 20260510014142 | 62 | 169 | 0.0 | 1.0 | 0.00 | 0.02 | 0.02 | 99 | 1015.9 |
| 20260510013637 | 62 | 169 | 0.0 | 0.0 | 0.00 | 0.02 | 0.02 | 99 | 1015.6 |
| 20260510013133 | 63 | 170 | 0.0 | 0.0 | 0.00 | 0.02 | 0.02 | 99 | 1015.9 |
| 20260510012633 | 63 | 170 | 0.0 | 0.0 | 0.00 | 0.02 | 0.02 | 99 | 1015.9 |
| 20260510012128 | 63 | 167 | 0.0 | 0.0 | 0.00 | 0.02 | 0.02 | 99 | 1015.8 |
| 20260510011623 | 63 | 186 | 1.0 | 1.0 | 0.00 | 0.02 | 0.02 | 99 | 1015.8 |
| 20260510011119 | 63 | 177 | 0.0 | 1.0 | 0.00 | 0.02 | 0.02 | 99 | 1015.6 |
| 20260510010615 | 64 | 188 | 1.0 | 1.0 | 0.00 | 0.02 | 0.02 | 99 | 1015.4 |
| 20260510010113 | 64 | 168 | 0.0 | 0.0 | 0.00 | 0.02 | 0.02 | 98 | 1015.4 |
| 20260510005608 | 64 | 127 | 0.0 | 0.0 | 0.00 | 0.02 | 0.02 | 98 | 1015.4 |
| 20260510005106 | 64 | 164 | 0.0 | 0.0 | 0.00 | 0.02 | 0.02 | 97 | 1015.5 |
| 20260510004604 | 65 | 170 | 0.0 | 0.0 | 0.00 | 0.02 | 0.02 | 97 | 1015.1 |
| 20260510004102 | 65 | 180 | 1.0 | 1.0 | 0.00 | 0.02 | 0.02 | 96 | 1015.1 |
| 20260510003558 | 66 | 170 | 0.0 | 1.0 | 0.00 | 0.02 | 0.02 | 95 | 1015.1 |
| 20260510003054 | 66 | 164 | 0.0 | 0.0 | 0.00 | 0.02 | 0.02 | 94 | 1015.0 |
| 20260510002548 | 66 | 166 | 0.0 | 0.0 | 0.00 | 0.02 | 0.02 | 93 | 1015.0 |
| 20260510002046 | 67 | 166 | 0.0 | 1.0 | 0.00 | 0.02 | 0.02 | 93 | 1014.9 |
| 20260510001543 | 67 | 174 | 0.0 | 1.0 | 0.00 | 0.02 | 0.02 | 92 | 1014.7 |
| 20260510001042 | 68 | 177 | 1.0 | 1.0 | 0.00 | 0.02 | 0.02 | 91 | 1014.7 |
| 20260510000536 | 69 | 176 | 0.0 | 0.0 | 0.00 | 0.02 | 0.02 | 89 | 1014.4 |
| 20260510000033 | 69 | 170 | 0.0 | 1.0 | 0.00 | 0.02 | 0.02 | 88 | 1014.6 |
| 20260509235530 | 70 | 167 | 0.0 | 1.0 | 0.00 | 0.02 | 0.02 | 86 | 1014.5 |
| 20260509235027 | 70 | 176 | 0.0 | 1.0 | 0.00 | 0.02 | 0.02 | 84 | 1014.6 |
| 20260509234523 | 71 | 191 | 1.0 | 2.0 | 0.00 | 0.02 | 0.02 | 83 | 1014.4 |
| 20260509234021 | 71 | 281 | 1.0 | 1.0 | 0.00 | 0.02 | 0.02 | 83 | 1014.5 |
| 20260509233518 | 71 | 210 | 1.0 | 2.0 | 0.00 | 0.02 | 0.02 | 83 | 1014.4 |
| 20260509233015 | 71 | 192 | 1.0 | 2.0 | 0.00 | 0.02 | 0.02 | 83 | 1014.3 |
| 20260509232512 | 71 | 212 | 2.0 | 3.0 | 0.00 | 0.02 | 0.02 | 82 | 1014.3 |
| 20260509232009 | 71 | 214 | 2.0 | 3.0 | 0.00 | 0.02 | 0.02 | 82 | 1014.5 |
| 20260509231505 | 72 | 168 | 0.0 | 2.0 | 0.00 | 0.02 | 0.02 | 82 | 1014.4 |
| 20260509231003 | 72 | 223 | 0.0 | 2.0 | 0.00 | 0.02 | 0.02 | 81 | 1014.4 |
| 20260509230459 | 72 | 174 | 0.0 | 2.0 | 0.00 | 0.02 | 0.02 | 80 | 1014.5 |
| 20260509225955 | 72 | 224 | 1.0 | 2.0 | 0.00 | 0.02 | 0.02 | 80 | 1014.4 |
| 20260509225452 | 73 | 199 | 1.0 | 3.0 | 0.00 | 0.02 | 0.02 | 79 | 1014.3 |